sat.trackr.live / text

‹ back to catalog

STARLINK-37389

NORAD 68778 · 2026-086N

PAYLOAD ACTIVE UNKNOWN

§ Identity

Operator
Country
US
Launch date
2026-04-19
Launch site
AFWTR
Launch vehicle
Mass (kg)
RCS (m²)

Purposes: comms

External: N2YO · Heavens-Above · Gunter

§ Orbital elements

Epoch: 2026-09-20T00:53:50.335296Z

Period
93.90 min
Inclination
97.2852°
Eccentricity
0.0001400
Mean motion
15.33465122 rev/d
Perigee alt
464.5 km
Apogee alt
466.4 km
Semi-major
6,843.6 km
B*
3.4677e-4
RAAN
298.4655°
Arg perigee
100.3420°
Mean anomaly
259.7981°
Rev number
2,361

§ Raw data

STARLINK-373891 68778U 26086N   26263.03738814  .00011144  00000+0  34677-3 0  99912 68778  97.2852 298.4655 0001400 100.3420 259.7981 15.33465122 23610

JSON: /api/v1/satellites/68778 · /tle

For live sub-satellite position, see the globe view (requires WebGL).

§ Visibility from observer

Set your observer location to see the next 7 days of passes ≥ 10°. The values pass through the URL so the page stays shareable.

No JS? Fill the form by hand. The geolocation button needs JavaScript.